Location: La Coru��a
(43.3623°N, 8.4115°W)
Time: 23:06:08
(UTC+02:00)

Falcon 9 debris - Visible Passes

Search period start: 11 August 2022 00:00
Search period end: 21 August 2022 00:00
Orbit: 380 x 385 km, 53.0° (Epoch: 11 August)

Date Brightness Start Highest point End Pass type
(mag) Time Alt. Az. Time Alt. Az. Time Alt. Az.
11 Aug ? 05:19:56 47° NNW 05:19:56 47° NNW 05:22:45 10° NE visible
11 Aug ? 06:54:04 10° NW 06:56:09 16° N 06:58:14 10° NNE visible
12 Aug ? 04:22:59 16° ENE 04:22:59 16° ENE 04:23:44 10° ENE visible
12 Aug ? 05:55:11 15° WNW 05:56:46 21° NNW 05:59:16 10° NE visible
13 Aug ? 04:58:11 28° N 04:58:11 28° N 05:00:19 10° NE visible
13 Aug ? 06:32:09 10° NW 06:34:02 15° N 06:35:54 10° NNE visible
14 Aug ? 04:01:07 11° NE 04:01:07 11° NE 04:01:15 10° NE visible
14 Aug ? 05:33:19 15° NW 05:34:31 17° NNW 05:36:44 10° NNE visible
15 Aug ? 04:36:12 19° NNE 04:36:12 19° NNE 04:37:39 10° NE visible
15 Aug ? 06:09:56 10° NW 06:11:43 14° N 06:13:30 10° NE visible
16 Aug ? 05:11:16 14° NNW 05:12:04 15° N 05:14:03 10° NNE visible
16 Aug ? 06:46:43 10° NNW 06:48:52 17° NNE 06:51:01 10° NE visible
17 Aug ? 04:14:08 13° NNE 04:14:08 13° NNE 04:14:48 10° NNE visible
17 Aug ? 05:47:22 10° NNW 05:49:12 14° N 05:51:02 10° NE visible
18 Aug ? 04:49:11 14° N 04:49:28 14° N 04:51:17 10° NNE visible
18 Aug ? 06:23:48 10° NNW 06:26:13 20° NNE 06:28:37 10° ENE visible
19 Aug ? 05:24:28 10° NNW 05:26:29 16° N 05:28:30 10° NE visible
19 Aug ? 06:59:57 10° NW 07:02:58 42° NNE 07:05:57 10° ESE visible
20 Aug ? 04:27:19 13° NNE 04:27:19 13° NNE 04:28:27 10° NE visible
20 Aug ? 06:00:39 10° NW 06:03:19 25° NNE 06:06:00 10° E visible
